Cape Girardeau, MO

5:19 PM CST on December 14, 2019 (GMT -0600)
Cape Girardeau Regional

Weather History for KCGI - October, 2019

Change the Weather History Date:

Sunday, October 6, 2019

  Actual Average Record
Temperature  
Mean Temperature 64 °F 61 °F  
Max Temperature 69 °F 74 °F 90 °F (2018)
Min Temperature 59 °F 48 °F 29 °F (1964)
Degree Days  
Heating Degree Days 1 6  
Month to date heating degree days 1 32  
Since 1 July heating degree days 1 81  
Cooling Degree Days 0 2  
Month to date cooling degree days 44 12  
Year to date cooling degree days 1768 1434  
Growing Degree Days 14 (Base 50)    
Moisture  
Dew Point 61 °F    
Average Humidity 82    
Maximum Humidity 90    
Minimum Humidity 73    
Precipitation  
Precipitation 1.10 in 0.13 in 1.10 in (2019)
Month to date precipitation 1.10 0.70  
Year to date precipitation 48.77 35.03  
Sea Level Pressure  
Sea Level Pressure 30.09 in    
Wind  
Wind Speed 6 mph (NNE)    
Max Wind Speed 18 mph    
Max Gust Speed 25 mph    
Visibility 7 miles    
Events Rain    
T = Trace of Precipitation, MM = Missing Value Source: NWS Daily Summary

Daily Weather History Graph

Daily Weather History Graph

Search for Another Location

Airport or City:

Astronomy

Oct. 06, 2019 Rise Set
Actual Time 6:57 AM CDT 6:34 PM CDT
Civil Twilight 6:31 AM CDT 7:00 PM CDT
Nautical Twilight 6:01 AM CDT 7:30 PM CDT
Astronomical Twilight 5:31 AM CDT 8:00 PM CDT
Moon 3:03 PM CDT (10/6) 12:06 AM CDT (10/6)
Length of Visible Light 12h 28m
Length of Day
11h 36m
First Quarter, 60% of the Moon is Illuminated
Oct 6
First Quarter
Oct 13
Full
Oct 21
Last Quarter
Oct 27
New
Nov 4
First Quarter

Hourly Weather History & Observations

Time (CDT) Temp. Dew Point Humidity Pressure Visibility Wind Dir Wind Speed Gust Speed Precip Events Conditions
12:53 AM 66.0 °F 57.0 °F 73% 29.96 in 10.0 mi South 4.6 mph - N/A   Clear
1:53 AM 64.0 °F 57.9 °F 80% 29.97 in 10.0 mi Calm Calm - N/A   Clear
2:53 AM 63.0 °F 57.0 °F 81% 29.99 in 10.0 mi Calm Calm - N/A   Partly Cloudy
3:53 AM 62.1 °F 57.9 °F 86% 29.99 in 10.0 mi Calm Calm - N/A   Mostly Cloudy
4:53 AM 63.0 °F 59.0 °F 87% 30.03 in 10.0 mi Calm Calm - N/A   Clear
5:53 AM 63.0 °F 59.0 °F 87% 30.05 in 10.0 mi Calm Calm - N/A   Mostly Cloudy
6:53 AM 66.0 °F 60.1 °F 81% 30.08 in 8.0 mi Calm Calm - N/A   Overcast
7:06 AM 64.0 °F 60.1 °F 87% 30.09 in 1.8 mi WSW 4.6 mph - 0.10 in Rain Heavy Rain
7:18 AM 63.0 °F 60.1 °F 90% 30.09 in 3.0 mi Calm Calm - 0.14 in Rain Rain
7:53 AM 64.0 °F 62.1 °F 93% 30.07 in 4.0 mi Calm Calm - 0.16 in Rain Light Rain
8:53 AM 66.0 °F 62.1 °F 87% 30.07 in 8.0 mi ENE 4.6 mph - 0.00 in   Scattered Clouds
9:53 AM 68.0 °F 62.1 °F 81% 30.09 in 10.0 mi NNE 6.9 mph - N/A   Mostly Cloudy
10:53 AM 68.0 °F 63.0 °F 84% 30.11 in 10.0 mi NE 8.1 mph - N/A   Mostly Cloudy
11:07 AM 66.9 °F 63.0 °F 87% 30.11 in 1.8 mi NE 11.5 mph - 0.11 in Rain Heavy Rain
11:34 AM 66.9 °F 64.0 °F 90% 30.13 in 3.0 mi North 6.9 mph - 0.28 in Rain Rain
11:53 AM 66.9 °F 64.0 °F 90% 30.13 in 2.5 mi North 8.1 mph - 0.33 in Rain Rain
12:04 PM 66.9 °F 64.9 °F 93% 30.12 in 4.0 mi NNE 8.1 mph - 0.01 in Rain Light Rain
12:53 PM 66.9 °F 64.0 °F 90% 30.10 in 10.0 mi NNE 8.1 mph - 0.01 in   Mostly Cloudy
1:38 PM 66.9 °F 64.0 °F 90% 30.10 in 2.5 mi NNE 6.9 mph - 0.07 in Rain Rain
1:53 PM 66.9 °F 64.0 °F 90% 30.11 in 2.0 mi Calm Calm - 0.13 in Rain Light Rain
2:02 PM 66.9 °F 64.0 °F 90% 30.10 in 4.0 mi NNE 6.9 mph - 0.03 in Rain Rain
2:15 PM 66.0 °F 64.0 °F 93% 30.10 in 1.8 mi NE 6.9 mph - 0.10 in Rain Heavy Rain
2:24 PM 66.9 °F 64.0 °F 90% 30.08 in 3.0 mi ENE 9.2 mph - 0.10 in Rain Light Rain
2:34 PM 66.9 °F 64.9 °F 93% 30.09 in 8.0 mi North 5.8 mph - 0.10 in   Overcast
2:41 PM 66.9 °F 64.0 °F 90% 30.09 in 9.0 mi NE 5.8 mph - 0.10 in   Overcast
2:53 PM 68.0 °F 64.9 °F 90% 30.08 in 10.0 mi NE 9.2 mph - 0.10 in   Overcast
3:24 PM 68.0 °F 64.9 °F 90% 30.07 in 10.0 mi NNE 8.1 mph - N/A   Overcast
3:32 PM 68.0 °F 64.9 °F 90% 30.06 in 10.0 mi NNE 10.4 mph - N/A   Overcast
3:53 PM 66.9 °F 63.0 °F 87% 30.06 in 10.0 mi NNE 10.4 mph - N/A   Overcast
4:28 PM 64.0 °F 62.1 °F 93% 30.10 in 1.5 mi NNW 15.0 mph - 0.10 in Rain Heavy Rain
4:41 PM 63.0 °F 61.0 °F 93% 30.09 in 3.0 mi NNW 12.7 mph - 0.14 in Rain Rain
4:53 PM 63.0 °F 60.1 °F 90% 30.10 in 6.0 mi NNW 11.5 mph - 0.15 in Rain Light Rain
5:07 PM 62.1 °F 60.1 °F 93% 30.10 in 5.0 mi North 9.2 mph - 0.03 in Rain Rain
5:17 PM 62.1 °F 60.1 °F 93% 30.11 in 7.0 mi North 10.4 mph - 0.03 in Rain Light Rain
5:53 PM 62.1 °F 59.0 °F 90% 30.11 in 3.0 mi North 13.8 mph - 0.07 in Rain Rain
6:09 PM 61.0 °F 59.0 °F 93% 30.10 in 5.0 mi NNE 10.4 mph - 0.03 in Rain Light Rain
6:53 PM 61.0 °F 57.9 °F 90% 30.11 in 10.0 mi NNE 9.2 mph - 0.05 in Rain Light Rain
7:33 PM 60.1 °F 57.0 °F 90% 30.17 in 5.0 mi North 11.5 mph - 0.05 in Rain Rain
7:53 PM 59.0 °F 55.0 °F 87% 30.12 in 9.0 mi NE 13.8 mph 21.9 mph 0.06 in Rain Light Rain
8:04 PM 59.0 °F 55.9 °F 90% 30.11 in 9.0 mi NE 15.0 mph - 0.02 in Rain Light Rain
8:53 PM 59.0 °F 55.9 °F 90% 30.12 in 10.0 mi NE 10.4 mph - 0.03 in Rain Light Rain
9:53 PM 60.1 °F 55.9 °F 86% 30.15 in 10.0 mi NE 6.9 mph - 0.01 in   Mostly Cloudy
10:53 PM 60.1 °F 55.9 °F 86% 30.17 in 10.0 mi North 5.8 mph - N/A   Overcast
11:53 PM 60.1 °F 55.9 °F 86% 30.15 in 10.0 mi NNE 6.9 mph - N/A   Overcast